TimeEDT,TemperatureF,Dew PointF,Humidity,Sea Level PressureIn,VisibilityMPH,Wind Direction,Wind SpeedMPH,Gust SpeedMPH,PrecipitationIn,Events,Conditions,WindDirDegrees,DateUTC
12:53 AM,75.0,69.1,82,30.15,10.0,SSW,6.9,-,N/A,,Clear,200,2013-07-17 04:53:00
1:53 AM,73.0,66.9,81,30.14,10.0,SW,5.8,-,N/A,,Clear,220,2013-07-17 05:53:00
2:53 AM,72.0,66.9,84,30.14,10.0,SW,4.6,-,N/A,,Clear,220,2013-07-17 06:53:00
3:53 AM,73.0,66.9,81,30.14,10.0,SW,6.9,-,N/A,,Clear,230,2013-07-17 07:53:00
4:53 AM,72.0,66.0,81,30.14,10.0,SW,8.1,-,N/A,,Clear,220,2013-07-17 08:53:00
5:53 AM,72.0,66.0,81,30.15,10.0,SW,8.1,-,N/A,,Clear,230,2013-07-17 09:53:00
6:53 AM,73.9,66.9,79,30.16,10.0,SW,10.4,-,N/A,,Clear,220,2013-07-17 10:53:00
7:53 AM,75.9,69.1,79,30.16,10.0,SW,10.4,-,N/A,,Clear,220,2013-07-17 11:53:00
8:53 AM,80.1,69.1,69,30.15,10.0,SW,10.4,-,N/A,,Clear,230,2013-07-17 12:53:00
9:53 AM,82.0,71.1,69,30.14,10.0,SW,12.7,-,N/A,,Clear,230,2013-07-17 13:53:00
10:53 AM,84.9,72.0,65,30.13,10.0,SW,10.4,-,N/A,,Clear,220,2013-07-17 14:53:00
11:53 AM,88.0,73.0,61,30.11,10.0,WSW,11.5,-,N/A,,Clear,240,2013-07-17 15:53:00
12:53 PM,90.0,73.9,59,30.09,10.0,WSW,11.5,-,N/A,,Scattered Clouds,250,2013-07-17 16:53:00
1:53 PM,89.1,73.9,61,30.06,10.0,SW,13.8,-,N/A,,Scattered Clouds,230,2013-07-17 17:53:00
2:53 PM,91.0,75.0,59,30.03,10.0,SW,13.8,21.9,N/A,,Scattered Clouds,220,2013-07-17 18:53:00
3:53 PM,84.0,73.9,72,30.00,3.0,SW,10.4,-,0.02,Rain,Light Rain,230,2013-07-17 19:53:00
4:53 PM,82.9,72.0,69,30.00,10.0,WSW,12.7,19.6,0.05,Thunderstorm,Partly Cloudy,250,2013-07-17 20:53:00
5:13 PM,82.4,71.6,70,30.01,10.0,West,8.1,-,N/A,,Clear,270,2013-07-17 21:13:00
5:53 PM,82.0,72.0,71,30.01,10.0,West,6.9,-,N/A,,Scattered Clouds,260,2013-07-17 21:53:00
6:53 PM,82.0,73.9,76,30.01,8.0,WSW,8.1,-,0.00,,Partly Cloudy,250,2013-07-17 22:53:00
7:53 PM,82.9,73.0,72,30.00,10.0,WSW,9.2,-,N/A,,Clear,250,2013-07-17 23:53:00
8:53 PM,80.1,72.0,76,30.01,10.0,WSW,9.2,-,N/A,,Scattered Clouds,250,2013-07-18 00:53:00
9:53 PM,77.0,72.0,84,30.04,10.0,NW,4.6,-,N/A,,Partly Cloudy,310,2013-07-18 01:53:00
10:53 PM,73.9,72.0,93,30.03,10.0,WNW,3.5,-,N/A,,Clear,290,2013-07-18 02:53:00
11:53 PM,73.0,72.0,96,30.04,4.0,Calm,Calm,-,N/A,,Clear,0,2013-07-18 03:53:00